Location: Betzi
(47.2343°N, 9.5260°E)
Time: 17:26:45
(UTC+00:00)

Cosmos 1271 Rocket - Pass Details

Date: 27 May 2022
Orbit: 495 x 539 km, 81.2° (Epoch: 06 July)

Event Time Altitude Azimuth Distance (km) Brightness Sun altitude
Rises 02:09:57 0° 340° (NNW) 2,629 6.7 -11.4°
Reaches altitude 10° 02:12:11 10° 332° (NNW) 1,745 5.7 -11.2°
Maximum altitude 02:15:41 34° 266° (W) 866 3.5 -10.8°
Enters shadow 02:18:32 14° 205° (SSW) 1,514 4.5 -10.5°
